www.pogodaiklimat.ru

Погода и климат >> Архив погоды >> Россия >> Московская область >> Коломна


АРХИВ ПОГОДЫ в Коломне

Время (UTC), дата Ветер
(напр.,м/с)
 
Видим.   Явления Облачность Т
(С)
Тd
(С)
f
(%)
Тe
(С)
Тes
(С)
Комфортность P
(гПа)
Po
(гПа)
Тmin
(С)
Tmax
(С)
R
(мм)
R24
(мм)
S
(см)
00 15.07 штиль 0 10 км 8/3 600 м
[Sc Ci fib]
+8.8 +8.2 96 +8 +8 холодно 1011.6 997.8
03 15.07 штиль 0 10 км 6/0 2000 м
[Ac trans]
+9.8 +9.4 97 +9 +10 очень
холодно
1011.8 998.0 +8.1
06 15.07 штиль 0 10 км 8/0
[Ci fib]
+18.9 +9.9 56 +19 +29 по сезону 1011.3 998.0 +8.1
09 15.07 штиль 0 10 км 10/10 600 м
[Sc]
+20.3 +9.1 49 +21 +21 комфорт 1011.0 997.7
12 15.07 СЗ 1 10 км 9/8 600 м
[Sc Ci fib]
+21.1 +10.9 52 +23 +25 комфорт 1010.9 997.7
15 15.07 штиль 0 10 км 9/9 600 м
[Sc]
+18.3 +9.0 55 +19 +19 прохладно 1011.3 998.0
18 15.07 штиль 0 10 км 8/4 600 м
[Sc Ci fib]
+15.1 +10.5 74 +15 +15 холодно 1011.4 997.9 +21.4
21 15.07 штиль 0 10 км 10/10 600 м
[Sc]
+13.7 +11.6 87 +13 +13 прохладно 1011.9 998.3
00 16.07 штиль 0 10 км {ливн. осадки} 10/10 600 м
[Cb cap]
+13.4 +12.7 96 +13 +13 по сезону 1011.9 998.3
03 16.07 штиль 0 10 км 9/9 600 м
[Sc diur, vesp]
+13.6 +13.0 96 +13 +13 прохладно 1011.8 998.2 +12.6 0.4
06 16.07 ЮВ 1 10 км {ливн. осадки} 9/8 600 м
[Cb cap Ac trans]
+16.1 +12.7 80 +17 +18 прохладно 1011.7 998.2 +12.6 0.3
09 16.07 В 2 10 км {ливн. осадки} 8/4 600 м
[Sc diur, vesp Ac trans Ci fib]
+20.2 +13.4 65 +23 +29 комфорт 1010.9 997.6
12 16.07 ЮВ 3 10 км {ливн. осадки} 9/0
[Ci fib]
+23.9 +13.1 51 +26 +34 жарко 1008.9 995.9
15 16.07 СЗ 1 10 км 10/10 600 м
[Sc diur, vesp]
+21.6 +13.4 60 +24 +24 комфорт 1008.6 995.4 0.5
18 16.07 штиль 0 10 км в посл. час ливневой дождь 10/10 600 м
[Cb cap]
+15.4 +14.4 94 +15 +15 холодно 1009.9 996.5 +24.7 1
21 16.07 штиль 0 10 км 8/4 600 м
[Sc diur, vesp Ac trans]
+14.2 +13.5 96 +14 +14 прохладно 1009.4 995.9
00 17.07 штиль 0 10 км в посл. час ливневой дождь 9/9 600 м
[Cb cap]
+14.6 +13.9 96 +14 +14 по сезону 1009.6 996.1
03 17.07 штиль 0 10 км в посл. час ливневой дождь 10/10 600 м
[Sc diur, vesp]
+14.9 +14.4 97 +15 +15 по сезону 1008.5 995.1 +14.0 3
06 17.07 штиль 0 10 км {ливн. осадки} 10/10 600 м
[Cb cap]
+18.0 +15.8 87 +18 +18 по сезону 1008.2 994.9 +14.0 2
09 17.07 СВ 1 10 км 9/8 600 м
[Cb cap Ac trans]
+21.0 +14.9 68 +25 +28 комфорт 1007.1 993.9
12 17.07 штиль 0 10 км {ливн. осадки} 10/10 600 м
[Cb cap]
+17.9 +16.5 92 +18 +18 холодно 1006.4 993.1
15 17.07 В 3 10 км 9/8 600 м
[Cb cap Ac trans]
+18.1 +13.7 75 +18 +19 прохладно 1005.6 992.3 3
18 17.07 штиль 0 10 км 9/9 600 м
[Sc diur, vesp]
+16.3 +14.4 89 +16 +16 прохладно 1005.6 992.2 +22.7 3
21 17.07 штиль 0 10 км 9/9 600 м
[Sc]
+15.2 +14.4 95 +15 +15 прохладно 1004.6 991.3
00 18.07 штиль 0 10 км 10/10 600 м
[Sc]
+14.9 +14.4 97 +15 +15 по сезону 1004.0 990.6
03 18.07 ЮЗ 1 10 км 10/10 600 м
[Sc]
+15.7 +15.2 97 +16 +16 по сезону 1004.4 991.0 +14.5
06 18.07 Ю 1 10 км 9/8 600 м
[Sc Ac trans]
+17.8 +14.5 81 +19 +20 по сезону 1004.9 991.6 +14.5
09 18.07 Ю 1 10 км 3/3 600 м
[Cu med, cong]
+22.1 +13.5 58 +25 +37 комфорт 1004.9 991.8
12 18.07 штиль 0 10 км в посл. час гроза {ливн. осадки} 10/10 600 м
[Cb cap]
+14.9 +14.1 95 +15 +15 очень
холодно
1005.9 992.5
15 18.07 штиль 0 10 км {ливн. осадки} 6/4 600 м
[Sc Ac trans]
+19.5 +12.5 64 +21 +22 комфорт 1005.3 992.1 5
18 18.07 ЮЗ 1 10 км {ливн. осадки} 8/3 600 м
[Sc Ci fib]
+15.4 +11.5 78 +16 +16 прохладно 1006.1 992.7 +23.3 5
21 18.07 штиль 0 10 км 8/5 600 м
[Sc Ci fib]
+11.9 +10.8 93 +11 +11 холодно 1006.8 993.3
00 19.07 штиль 0 10 км 8/4 600 м
[Sc Ci fib]
+10.9 +10.4 97 +10 +10 холодно 1006.5 992.9
03 19.07 штиль 0 10 км слаб. ливневой дождь 10/10 600 м
[Cb cap]
+12.7 +11.9 95 +12 +12 холодно 1006.0 992.5 +10.9 0.3
06 19.07 Ю 2 10 км слаб. ливневой дождь 10/10 600 м
[Cb cap]
+14.0 +13.2 95 +13 +13 холодно 1005.2 991.7 +10.9 3
09 19.07 З 2 10 км {ливн. осадки} 9/9 600 м
[Cb cap]
+17.6 +14.1 80 +18 +20 прохладно 1005.6 992.3
12 19.07 З 2 10 км {ливн. осадки} 8/8 600 м
[Cu med, cong]
+22.0 +11.8 52 +24 +26 комфорт 1006.5 993.4
15 19.07 ЮЗ 1 10 км слаб. ливневой дождь 9/9 600 м
[Cb cap]
+20.1 +14.6 71 +24 +24 комфорт 1007.0 993.8 3
18 19.07 штиль 0 10 км {ливн. осадки} 6/4 600 м
[Sc diur, vesp Ci fib]
+16.4 +13.5 83 +16 +16 прохладно 1007.7 994.3 +22.4 0.3
21 19.07 штиль 0 10 км 8/0
[Ci fib]
+15.0 +13.9 93 +15 +15 прохладно 1008.4 994.9
00 20.07 ЮЗ 1 10 км 9/8 600 м
[Sc Ci fib]
+14.9 +13.7 93 +15 +15 по сезону 1009.0 995.5
03 20.07 З 1 10 км 9/9 600 м
[Sc]
+15.7 +13.5 87 +16 +16 по сезону 1009.8 996.4 +14.5 0.0
06 20.07 З 1 10 км {ливн. осадки} 10/10 600 м
[Cb cap]
+16.7 +14.3 86 +18 +18 прохладно 1010.6 997.2 +14.5 0.0
09 20.07 З 2 10 км {ливн. осадки} 8/5 600 м
[Cb cap Ci fib]
+18.1 +16.6 91 +19 +25 прохладно 1011.5 998.2
12 20.07 З 2 10 км в посл. час ливневой дождь 9/8 600 м
[Cb cap Ac trans]
+21.5 +15.6 69 +25 +26 комфорт 1012.1 998.9
15 20.07 З 1 10 км слаб. ливневой дождь 9/8 600 м
[Cb cap Ci fib]
+16.9 +15.6 92 +18 +18 прохладно 1013.0 999.6 4
18 20.07 З 1 10 км {ливн. осадки} 8/5 600 м
[Sc diur, vesp Ac trans]
+16.4 +15.5 94 +17 +17 прохладно 1013.7 1000.2 +21.5 4
21 20.07 З 1 10 км ясно +15.5 +14.8 96 +16 +16 по сезону 1014.0 1000.5
00 21.07 штиль 0 10 км 8/4 600 м
[Sc Ac trans]
+15.2 +14.4 95 +15 +15 по сезону 1014.8 1001.2
03 21.07 З 1 10 км 10/10 600 м
[Sc]
+15.4 +14.6 95 +16 +16 по сезону 1015.1 1001.6 +14.5 0.3
06 21.07 З 1 10 км 10/10 600 м
[Sc]
+17.1 +14.7 86 +18 +18 по сезону 1016.1 1002.6 +14.5
09 21.07 З 2 10 км 8/6 600 м
[Cb cap Ci fib]
+21.5 +14.3 64 +24 +30 комфорт 1015.8 1002.6
12 21.07 штиль 0 10 км в посл. час ливневой дождь 9/9 600 м
[Cb cap]
+18.3 +15.2 82 +19 +20 прохладно 1016.7 1003.3
15 21.07 штиль 0 10 км 5/3 1000 м
[Sc diur, vesp Ac trans]
+22.4 +14.8 62 +26 +28 жарко 1016.0 1002.8 1
18 21.07 штиль 0 10 км 5/0 2000 м
[Ac trans Ci fib]
+16.9 +14.2 84 +17 +17 прохладно 1016.5 1003.0 +23.7 1

 

Местоположение метеостанции Коломна (Московская область, Россия): широта 55.13 долгота 38.73 высота над уровнем моря 114 м.

В архиве по умолчанию представлена погода в Коломне за последнюю неделю. Архивные данные за месяц целиком и за предыдущие месяцы, начиная с января 2011 года, Вы можете получить, выбрав интересующий диапазон дат из раскрывающегося списка и нажав кнопку "Ввод!".


*Определитесь, кто Вы:
робот инопланетянин человек

Внимание! Время в таблицах - всемирное. Для получения местного времени необходимо прибавить поправку, которая равна 3 ч.

Смотрите также архив погоды в соседних городах и на ближайших метеорологических станциях:

Погода в Воскресенске (Московская область, Россия) (20 км)
Погода в Луховицах (Московская область, Россия) (26 км)
Погода в Егорьевске (Московская область, Россия) (33 км)
Погода в Зарайске (Московская область, Россия) (41 км)
Погода в Михнево (Московская область, Россия) (49 км)
Погода в Кашире (Московская область, Россия) (50 км)
Погода в Домодедово (Московская область, Россия) (61 км)
Погода в Мелихово (Московская область, Россия) (69 км)
Погода в Павловском Посаде (Московская область, Россия) (71 км)
Погода в Серебряных Прудах (Московская область, Россия) (73 км)

Пояснения к столбцам:

Ветер - указаны скорость ветра в м/с - средняя за 10 мин, порывы в срок и между сроками (в фигурных скобках) и направление, откуда дует ветер: С - северный, СВ - северо-восточный, В - восточный, ЮВ - юго-восточный, Ю - южный, ЮЗ - юго-западный, З - западный, СЗ - северо-западный.
Видимость - горизонтальная дальность видимости в метрах или километрах. При видимости от 1 до 10 км при отсутствии осадков обычно наблюдается дымка, при ухудшении видимости до 1 км и менее - туман. В сухую погоду видимость может ухудшаться дымом, пылью или мглою.
Явления - указаны атмосферные явления, наблюдавшиеся в срок или в последний час перед сроком; фигурными скобками обозначены явления, наблюдавшиеся между сроками (за 1-3 часа до срока); квадратными скобками обозначены град или гололедные отложения с указанием их диаметра в мм.
Облачность - указаны через наклонную черту общая и нижняя облачность в баллах и высота нижней границы облаков в метрах; квадратными скобками обозначены формы облаков: Ci - перистые, Cs - перисто-слоистые, Cc - перисто-кучевые, Ac - высококучевые, As - высокослоистые, Sc - слоисто-кучевые, Ns - слоисто-дождевые, Cu - кучевые, Cb - кучево-дождевые. Подробнее классификацию облаков см. в Атласе облаков (PDF).
T - Температура воздуха - температура, измеренная на высоте 2 м над землей.
Td - Температура точки росы - температура, при понижении до которой содержащийся в воздухе водяной пар достигнет насыщения.
f - Относительная влажность воздуха - влажноcть воздуха, измеренная на высоте 2 м над землей.
Te - Эффективная температура - температура, которую ощущает одетый по сезону человек в тени. Характеристика душности погоды. При расчете учитывается влияние влажности воздуха и скорости ветра на теплоощущения человека.
Tes - Эффективная температура на солнце - температура, которую ощущает человек, с поправкой на солнечный нагрев. Характеристика знойности погоды. Зависит от высоты солнца над горизонтом, облачности и скорости ветра. Ночью, в пасмурную погоду, а также при ветре 12 м/с и более поправка равна нулю.
P - Атмосферное давление - приведенное к уровню моря атмосферное давление.
Po - Атмосферное давление - измеренное на уровне метеостанции атмосферное давление.
Tmin - Минимальная температура - минимум температуры воздуха на высоте 2 м над землей.
Tmax - Максимальная температура - максимум температуры воздуха на высоте 2 м над землей.
R - Количество осадков - Количество выпавших осадков за период времени, мм. При наведении курсора мыши на число - период времени, за который выпало указанное количество осадков.
R24 - Количество осадков - Количество выпавших осадков за 24 часа, мм.
S - Снежный покров - Высота снежного покрова, см. При наведении курсора мыши на число - состояние снежного покрова и степень покрытия местности в баллах.